Погода в Мари-Купте

Россия / Республика Марий Эл     56°51′19″N   49°42′24″E
темп.,
°C
ветер,
м/с
пор.,
м/с
влажн.,
%
обл.,
%
осадки,
мм/ч
давл.,
гПа
погр.,
м
13 июня, вс
вс1300:00+13вюв389738 0.0 1013206
03:00+12вюв249825 0.0 101279
06:00+16ююв238926 0.0 1012238
09:00+20ю3572100 0.0 1013676
12:00+23ю676110 0.3 10121529
15:00+24ю68583 0.8 10121852
18:00+22ю59705 1.3 1012546
21:00+17ююв498511 1.3 1013154
14 июня, пн
пн1400:00+16ю3994100 0.0 1013187
03:00+15ю399485 0.0 1013190
06:00+18ю4884100 0.0 1014264
09:00+21ююз477264 0.0 1014659
12:00+25юз575898 0.1 10141661
15:00+25юз5656100 0.3 10141761
18:00+23юз3669100 0.1 1014222
21:00+18юз3387100 0.1 101529
15 июня, вт
вт1500:00+16зюз228989 0.0 101414
03:00+16сз22887 0.0 101411
06:00+19св127799 0.0 1015150
09:00+24в226059 0.0 1014633
12:00+26в2249100 0.0 10131674
15:00+26вюв225141 0.0 10121692
18:00+21ю5884100 0.8 1012211
21:00+18ююз3491100 1.3 101381
16 июня, ср
ср1600:00+17ююв228974 0.4 101213
03:00+17ююв2291100 0.4 101122
06:00+20ююв2584100 0.0 1011189
09:00+25вюв356018 0.0 1009705
12:00+27юв455162 0.0 10081248
15:00+28ююв45495 0.0 10071617
18:00+27юз226677 0.1 100670
21:00+20ссз6138380 0.3 1006341
17 июня, чт
чт1700:00+17ссз6139661 3.7 1008521
03:00+14ссз612935 3.8 1011502
06:00+14ссз714830 0.0 1014655
09:00+18с811600 0.0 10151305
12:00+19ссз811480 0.0 10161874
15:00+20ссз610495 0.0 10172483
18:00+18ссв486532 0.1 1018542
21:00+16ссз39675 0.1 1020284